This is the latest recevied weather packets stored in our database for station/object WMSA. If no packets are shown the sender has not sent any weather packets the latest 10 day(s).
| Time | Temp. | Humidity | Pressure | Rain* | Wind** | Luminosity | Snow |
|---|---|---|---|---|---|---|---|
| 1778051403 | 31.67° C | 70% | 1005 hPa | - | - | - | - |
| 1778047797 | 32.78° C | 66% | 1007 hPa | - | - | - | - |
| 1778044196 | 32.78° C | 62% | 1008 hPa | - | - | - | - |
| 1778040597 | 31.67° C | 66% | 1009 hPa | - | - | - | - |
| 1778037001 | 30.56° C | 70% | 1009 hPa | - | - | - | - |
| 1778033396 | 30° C | 74% | 1009 hPa | - | - | - | - |
| 1778029798 | 27.78° C | 83% | 1009 hPa | - | - | - | - |
| 1778026197 | 26.67° C | 88% | 1008 hPa | - | - | - | - |
| 1778011796 | 26.67° C | 94% | 1007 hPa | - | - | - | - |
| 1778008196 | 26.67° C | 94% | 1008 hPa | - | - | - | - |
| 1778000996 | 26.67° C | 94% | 1008 hPa | - | - | - | - |
| 1777997397 | 26.67° C | 94% | 1008 hPa | - | - | - | - |
| 1777994996 | 26.67° C | 94% | 1008 hPa | - | - | - | - |
| 1777993796 | 26.67° C | 94% | 1008 hPa | - | - | - | - |
| 1777986604 | 27.78° C | 88% | 1007 hPa | - | - | - | - |
| 1777982995 | 27.78° C | 88% | 1007 hPa | - | - | - | - |
| 1777975795 | 27.78° C | 88% | 1006 hPa | - | - | - | - |
| 1777972200 | 27.78° C | 88% | 1006 hPa | - | - | - | - |
| 1777969788 | 28.89° C | 79% | 1006 hPa | - | - | - | - |
| 1777968595 | 28.89° C | 79% | 1006 hPa | - | - | - | - |
| 1777964995 | 30.56° C | 70% | 1006 hPa | - | - | - | - |
| 1777961395 | 32.78° C | 62% | 1007 hPa | - | - | - | - |
| 1777957799 | 32.78° C | 62% | 1008 hPa | - | - | - | - |
| 1777954194 | 32.78° C | 59% | 1009 hPa | - | - | - | - |
| 1777943394 | 27.78° C | 83% | 1009 hPa | - | - | - | - |
* Rain since midnight (hover to see other rain measurements)
** Current wind speed in m/s (hover to see current wind gust speed)